Lone Rock, WI

11:11 PM CDT on March 27, 2017 (GMT -0500)
Tri-County Regional

Weather History for KLNR - April, 2013

Change the Weather History Date:

Tuesday, April 2, 2013

  Actual Average Record
Temperature  
Mean Temperature 32 °F -  
Max Temperature 41 °F 50 °F 75 °F (1999)
Min Temperature 24 °F 31 °F 21 °F (2008)
Degree Days  
Heating Degree Days 34    
Moisture  
Dew Point 14 °F    
Average Humidity 50    
Maximum Humidity 77    
Minimum Humidity 30    
Precipitation  
Precipitation 0.00 in - - ()
Sea Level Pressure  
Sea Level Pressure 30.28 in    
Wind  
Wind Speed 7 mph (WNW)    
Max Wind Speed 16 mph    
Max Gust Speed 21 mph    
Visibility 10 miles    
Events      
Averages and records for this station are not official NWS values.
T = Trace of Precipitation, MM = Missing Value Source: NWS Daily Summary

Daily Weather History Graph

Daily Weather History Graph

Search for Another Location

Airport or City:

Trip Planner

Search our weather history database for the weather conditions in past years. The results will help you decide how hot, cold, wet, or windy it might be!

Date:

Astronomy

Apr. 02, 2013 Rise Set
Actual Time 6:40 AM CDT 7:28 PM CDT
Civil Twilight 6:11 AM CDT 7:57 PM CDT
Nautical Twilight 5:37 AM CDT 8:31 PM CDT
Astronomical Twilight 5:01 AM CDT 9:07 PM CDT
Moon 1:40 AM CDT (4/2) 11:24 AM CDT (4/2)
Length of Visible Light 13h 45m
Length of Day
12h 48m
Waning Gibbous, 55% of the Moon is Illuminated
Apr 2
Waning Gibbous
Apr 2
Last Quarter
Apr 10
New
Apr 18
First Quarter
Apr 25
Full

Hourly Weather History & Observations

Time (CDT) Temp. Windchill Dew Point Humidity Pressure Visibility Wind Dir Wind Speed Gust Speed Precip Events Conditions
12:56 AM 27.0 °F 23.0 °F 17.1 °F 66% 30.23 in 10.0 mi West 3.5 mph - N/A   Clear
1:56 AM 28.0 °F 21.7 °F 17.1 °F 63% 30.24 in 10.0 mi West 5.8 mph - N/A   Clear
2:56 AM 28.0 °F 20.0 °F 16.0 °F 61% 30.24 in 10.0 mi WNW 8.1 mph - N/A   Clear
3:56 AM 27.0 °F 19.5 °F 16.0 °F 63% 30.23 in 10.0 mi WNW 6.9 mph - N/A   Clear
4:56 AM 26.1 °F 18.4 °F 17.1 °F 69% 30.25 in 10.0 mi West 6.9 mph - N/A   Clear
5:56 AM 25.0 °F 20.7 °F 17.1 °F 72% 30.26 in 10.0 mi West 3.5 mph - N/A   Clear
6:56 AM 24.1 °F 16.0 °F 18.0 °F 77% 30.27 in 10.0 mi West 6.9 mph - N/A   Clear
7:56 AM 27.0 °F 18.7 °F 17.1 °F 66% 30.29 in 10.0 mi WNW 8.1 mph - N/A   Clear
8:56 AM 28.9 °F 21.1 °F 16.0 °F 58% 30.29 in 10.0 mi WNW 8.1 mph - N/A   Clear
9:56 AM 30.9 °F 24.3 °F 16.0 °F 54% 30.29 in 10.0 mi West 6.9 mph - N/A   Clear
10:56 AM 34.0 °F 26.6 °F 12.9 °F 42% 30.29 in 10.0 mi WNW 9.2 mph - N/A   Clear
11:56 AM 36.0 °F 29.6 °F 14.0 °F 41% 30.28 in 10.0 mi West 8.1 mph - N/A   Clear
12:56 PM 37.9 °F 30.5 °F 10.9 °F 33% 30.27 in 10.0 mi WNW 11.5 mph - N/A   Clear
1:56 PM 39.0 °F 32.3 °F 10.0 °F 30% 30.26 in 10.0 mi NW 10.4 mph - N/A   Partly Cloudy
2:56 PM 39.9 °F 31.4 °F 12.0 °F 32% 30.26 in 10.0 mi WNW 16.1 mph 20.7 mph N/A   Partly Cloudy
3:56 PM 39.9 °F 36.7 °F 10.9 °F 31% 30.25 in 10.0 mi NNW 4.6 mph - N/A   Clear
4:56 PM 39.9 °F 34.5 °F 12.0 °F 32% 30.26 in 10.0 mi NNW 8.1 mph - N/A   Clear
5:56 PM 39.0 °F 31.0 °F 10.9 °F 32% 30.28 in 10.0 mi North 13.8 mph 20.7 mph N/A   Clear
6:56 PM 37.0 °F 31.0 °F 12.0 °F 36% 30.30 in 10.0 mi NNW 8.1 mph - N/A   Clear
7:56 PM 34.0 °F 28.0 °F 12.0 °F 40% 30.30 in 10.0 mi NW 6.9 mph - N/A   Clear
8:56 PM 32.0 °F 25.6 °F 12.0 °F 44% 30.32 in 10.0 mi NNW 6.9 mph - N/A   Clear
9:56 PM 32.0 °F 25.6 °F 10.9 °F 42% 30.34 in 10.0 mi NNW 6.9 mph - N/A   Clear
10:56 PM 30.9 °F 26.2 °F 12.0 °F 46% 30.35 in 10.0 mi NNW 4.6 mph - N/A   Clear
11:56 PM 27.0 °F - 19.0 °F 72% 30.35 in 10.0 mi Calm Calm - N/A   Clear